Regional Weather Roundup
Issued by NWS

Home | Current Version | Previous Version | Text Only | Print | Product List | Glossary Off
Versions: 1 2 3 4 5 6 7 8 9 10 11 12 13 14 15 16 17 18 19 20 21 22 23 24 25 26 27 28 29 30 31 32 33 34 35 36 37 38 39 40 41 42 43 44 45 46 47 48 49 50

000
ASUS43 KIND 010259
RWRIN

WEATHER ROUNDUP FOR INDIANA
NATIONAL WEATHER SERVICE INDIANAPOLIS IN
1100 PM EDT TUE MAY 31 2016

NOTE: "FAIR" INDICATES FEW OR NO CLOUDS BELOW 12,000 FEET WITH NO
SIGNIFICANT WEATHER AND/OR OBSTRUCTIONS TO VISIBILITY.

* - STATION DOES NOT REPORT WEATHER SUCH AS PRECIPITATION OR FOG.

+ - STATION NOT QUALITY CONTROLLED BY THE NATIONAL WEATHER SERVICE.
    USE DATA WITH CAUTION...ESPECIALLY DEWPOINT AND RELATIVE
    HUMIDITY OBSERVATIONS.

INZ001>003-010>013-019-020-010400-
NORTHWEST INDIANA

CITY           SKY/WX    TMP DP  RH WIND       PRES   REMARKS
GARY /AIRPORT/ MOCLDY    66  64  94 E7        29.98S
RENSSELAER +   MOCLDY    68  63  83 NE7       29.97R

$$

LMZ046-743>745-010400-
SOUTHERN LAKE MICHIGAN

STATION/POSITION TIME  TEMP    WIND        PRES    WAVE
                       AIR SEA DIR/SP/G            HT
                 (UTC) (F)     (DEG/KT/KT) (MB)    (FT)
BURNS HARBOR     0200   64     100/  7/ 13 1015.6S
MICHIGAN CITY    0200   63      50/ 11/ 13   N/A
5NW MICH CITY    0200   62 62   80/ 12/ 16   N/A     2

$$

INZ004-005-014>016-021>024-010400-
NORTH CENTRAL INDIANA

CITY           SKY/WX    TMP DP  RH WIND       PRES   REMARKS
GOSHEN         CLOUDY    68  59  73 NE3       30.02R
SOUTH BEND     CLOUDY    65  62  90 CALM      30.03R

$$

INZ006>009-017-018-025>027-010400-
NORTHEAST INDIANA

CITY           SKY/WX    TMP DP  RH WIND       PRES   REMARKS
ANGOLA *+        N/A     70  61  73 E7        30.02S
FORT WAYNE     PTCLDY    72  46  39 E7        30.01R

$$

INZ028-029-035-036-043>045-051>053-010400-
WEST CENTRAL INDIANA

CITY           SKY/WX    TMP DP  RH WIND       PRES   REMARKS
CRAWFORDSVL +  MOCLDY    71  58  64 E9        29.97R
GREENCASTLE +  CLEAR     68  63  83 CALM      29.97R
LAFAYETTE      CLEAR     69  59  70 NE8       29.96R
TERRE HAUTE    CLEAR     73  60  63 SW5       29.96R

$$

INZ030>032-037>040-046>048-054>057-064-065-010400-
CENTRAL INDIANA

CITY           SKY/WX    TMP DP  RH WIND       PRES   REMARKS
INDIANAPOLIS   PTCLDY    77  57  50 SE5       29.96R
-EAGLE CREEK   MOCLDY    74  59  59 N6        29.97R
KOKOMO *+      CLOUDY    70  57  64 E10       29.99R
SHELBYVILLE    CLEAR     71  66  84 CALM      29.96R

$$

INZ033-034-041-042-049-050-058-059-010400-
EAST CENTRAL INDIANA

CITY           SKY/WX    TMP DP  RH WIND       PRES   REMARKS
MUNCIE         CLOUDY    77  55  46 E13       29.99R

$$

INZ060-061-067>069-081>083-085>088-010400-
SOUTHWEST INDIANA

CITY           SKY/WX    TMP DP  RH WIND       PRES   REMARKS
EVANSVILLE     CLOUDY    76  62  62 CALM      29.95R
HUNTINGBURG *+ CLEAR     70  61  73 SE3       29.96R

$$

INZ062-063-066-070>080-084-089>092-010400-
SOUTH CENTRAL AND SOUTHEAST INDIANA

CITY           SKY/WX    TMP DP  RH WIND       PRES   REMARKS
BLOOMINGTON    CLEAR     68  62  81 CALM      29.97R
MADISON *+     CLEAR     68  61  77 CALM      30.00R
SEYMOUR +      CLEAR     72  63  73 CALM      29.97R

$$





USA.gov is the U.S. government's official web portal to all federal, state and local government web resources and services.